Weather in Vanavara

Russia / Krasnoyarsk Krai     60°20′39″N   102°17′00″E
temp.,
°C
wind,
m/s
gust,
m/s
humid.,
%
clouds,
%
prec.,
mm/h
press.,
hPa
HPBL,
m
28 february, sun
sun2801:00−27sw3797100 0.1 1032235
04:00−28sw3797100 0.0 1032224
07:00−29sw2697100 0.1 1033196
10:00−26wsw3692100 0.0 1033477
13:00−24wsw4685100 0.1 1033899
16:00−24wsw4688100 0.1 1033952
19:00−26sw2497100 0.1 103397
22:00−28sw2298100 0.0 103332
1 march, mon
mon101:00−29sw1299100 0.1 103319
04:00−31sw1210095 0.0 103219
07:00−33sw1110096 0.1 103119
10:00−27w119267 0.0 1030225
13:00−23w128481 0.0 1028592
16:00−24nw1182100 0.0 1027684
19:00−30nne119598 0.0 102619
22:00−31ne129991 0.0 102619
2 march, tue
tue201:00−34nne2210092 0.0 102519
04:00−35nne2210093 0.0 102519
07:00−37nne239966 0.0 102524
10:00−31nne249339 0.0 1024264
13:00−26n348964 0.0 1024561
16:00−26nne3488100 0.0 1024679
19:00−32nne239598 0.0 102735
22:00−36nne23952 0.0 102919
3 march, wed
wed301:00−38nne22961 0.0 103019
04:00−39nne22960 0.0 103118
07:00−40nne22972 0.0 103318
10:00−34nne228916 0.0 1032281
13:00−28n128250 0.0 1032471
16:00−27n118093 0.0 1032545
19:00−34n019163 0.0 103419
22:00−36s00930 0.0 103519
4 march, thu
thu401:00−37wsw00950 0.0 103619
04:00−38s11960 0.0 103719
07:00−38s11950 0.0 103919
10:00−29ssw12860 0.0 1039270
13:00−24ssw12780 0.0 1038556
16:00−23s237851 0.0 1038722
19:00−29s129039 0.0 103919
22:00−31s22950 0.0 103919